CW1172 Weather Reports


Display with metric or nautical units.
time (UTC)temp
F
wind
direction
speed
MPH
gust
MPH
rain 1hr
in
rain 24hr
in
rain mn
in
humidity
%
barometer
mb
20260904043033 57 270 0.0 0.0 0.00 0.00 0.17 93 998.8
20260904041533 57 227 0.0 0.0 0.00 0.00 0.17 93 998.8
20260904040031 57 233 0.0 0.0 0.00 0.00 0.17 93 998.8
20260904034533 57 246 0.0 0.0 0.00 0.00 0.17 93 998.8
20260904033029 57 233 0.0 0.0 0.00 0.00 0.17 93 998.7
20260904031528 57 207 0.0 0.0 0.00 0.00 0.17 93 998.8
20260904030035 58 360 0.0 0.0 0.00 0.00 0.17 93 998.9
20260904024526 58 272 0.0 0.0 0.00 0.00 0.17 93 999.0
20260904023028 58 360 0.0 0.0 0.00 0.00 0.16 93 999.1
20260904021534 58 234 0.0 0.0 0.00 0.00 0.16 93 999.3
20260904020027 58 226 0.0 0.0 0.00 0.00 0.16 93 999.3
20260904014525 58 279 0.0 0.0 0.00 0.00 0.16 93 999.3
20260904013022 58 203 0.0 0.0 0.00 0.00 0.15 93 999.6
20260904011522 58 213 0.0 0.0 0.00 0.00 0.15 93 999.7
20260904010022 58 209 0.0 0.0 0.00 0.00 0.15 93 999.6
20260904004519 58 186 0.0 0.0 0.00 0.00 0.15 93 999.9
20260904003023 58 250 0.0 0.0 0.00 0.00 0.15 92 1000.5
20260904001517 58 138 0.0 0.0 0.00 0.00 0.14 92 1000.7
20260904000017 58 105 0.0 0.0 0.00 0.00 0.13 92 1000.7
20260903234514 58 128 0.0 0.0 0.00 0.00 0.12 92 1000.9
20260903233014 58 155 0.0 0.0 0.00 0.00 0.08 92 1001.0
20260903231510 58 111 0.0 0.0 0.00 0.00 0.03 91 1001.1
20260903230013 58 133 0.0 0.0 0.00 0.00 0.02 91 1001.1
20260903224508 58 129 0.0 0.0 0.00 0.00 0.00 90 1001.4
20260903223010 58 123 0.0 0.0 0.00 0.00 0.00 90 1001.8
20260903221521 58 113 0.0 0.0 0.00 0.00 0.00 90 1001.9
20260903220007 58 130 0.0 0.0 0.00 0.00 0.00 90 1002.0
20260903214506 58 135 0.0 0.0 0.00 0.00 0.00 89 1001.9
20260903213010 58 136 0.0 0.0 0.00 0.00 0.00 89 1002.1
20260903211502 58 117 0.0 0.0 0.00 0.00 0.00 89 1002.3
20260903210001 58 117 0.0 0.0 0.00 0.00 0.00 89 1002.5
20260903204604 58 117 0.0 0.0 0.00 0.00 0.00 88 1002.7
20260903203001 58 118 0.0 0.0 0.00 0.00 0.00 88 1002.9
20260903201601 58 117 0.0 0.0 0.00 0.00 0.00 88 1002.7
20260903200100 58 117 0.0 0.0 0.00 0.00 0.00 88 1002.8
20260903194559 58 190 0.0 0.0 0.00 0.00 0.00 87 1002.6
20260903193057 58 188 0.0 0.0 0.00 0.00 0.00 87 1003.0
20260903191556 58 188 0.0 0.0 0.00 0.00 0.00 86 1003.2
20260903190056 59 189 0.0 0.0 0.00 0.00 0.00 86 1003.2
20260903184554 59 190 0.0 0.0 0.00 0.00 0.00 85 1003.3
20260903183054 59 190 0.0 0.0 0.00 0.00 0.00 85 1003.3
20260903181554 59 188 0.0 0.0 0.00 0.00 0.00 84 1003.3
20260903180112 60 187 0.0 0.0 0.00 0.00 0.00 83 1003.5
20260903174552 60 188 0.0 0.0 0.00 0.00 0.00 82 1003.5
20260903173052 61 188 0.0 0.0 0.00 0.00 0.00 81 1003.6
20260903171554 61 189 0.0 0.0 0.00 0.00 0.00 81 1003.4
20260903170049 61 188 0.0 0.0 0.00 0.00 0.00 80 1003.6
20260903164556 61 190 0.0 0.0 0.00 0.00 0.00 79 1003.8
20260903163048 62 188 0.0 0.0 0.00 0.00 0.00 79 1004.0
20260903161548 62 188 0.0 0.0 0.00 0.00 0.00 79 1004.2
20260903160047 62 189 0.0 0.0 0.00 0.00 0.00 78 1004.3
20260903154545 62 188 0.0 0.0 0.00 0.00 0.00 77 1004.3
20260903153042 62 189 0.0 0.0 0.00 0.00 0.00 77 1004.6
20260903151541 62 219 0.0 0.0 0.00 0.00 0.00 77 1004.7
20260903150040 61 360 0.0 0.0 0.00 0.00 0.00 77 1004.8
20260903144541 62 240 0.0 0.0 0.00 0.00 0.00 76 1004.8
20260903143042 62 360 0.0 0.0 0.00 0.00 0.00 76 1005.1
20260903141540 62 175 0.0 0.0 0.00 0.00 0.00 77 1005.2
20260903140040 62 238 0.0 0.0 0.00 0.00 0.00 77 1005.3
20260903134539 62 360 0.0 0.0 0.00 0.00 0.00 76 1005.5
20260903133040 62 192 0.0 0.0 0.00 0.00 0.00 76 1005.6
20260903131539 61 244 0.0 0.0 0.00 0.00 0.00 76 1005.7
20260903130041 61 203 0.0 0.0 0.00 0.00 0.00 77 1005.8
20260903124532 61 360 0.0 0.0 0.00 0.00 0.00 77 1005.8
20260903123035 61 246 0.0 0.0 0.00 0.00 0.00 77 1006.0
20260903121535 61 252 0.0 0.0 0.00 0.00 0.00 76 1006.2
20260903120030 61 215 0.0 0.0 0.00 0.00 0.00 76 1006.4
20260903114528 61 186 0.0 0.0 0.00 0.00 0.00 76 1006.5
20260903113034 60 159 0.0 0.0 0.00 0.00 0.00 77 1006.6
20260903111528 61 360 0.0 0.0 0.00 0.00 0.00 76 1006.8
20260903110104 61 202 0.0 0.0 0.00 0.00 0.00 76 1006.8
20260903104525 60 261 0.0 0.0 0.00 0.00 0.00 76 1006.9
20260903103024 61 263 0.0 0.0 0.00 0.00 0.00 75 1007.0
20260903101521 61 360 0.0 0.0 0.00 0.00 0.00 74 1007.3
20260903100021 60 254 0.0 0.0 0.00 0.00 0.00 75 1007.5
20260903094542 59 219 0.0 0.0 0.00 0.00 0.00 76 1007.6
20260903093017 59 360 0.0 0.0 0.00 0.00 0.00 75 1007.6
20260903091520 59 241 0.0 0.0 0.00 0.00 0.00 76 1007.7
20260903090016 58 247 0.0 0.0 0.00 0.00 0.00 75 1007.7
20260903084515 58 241 0.0 0.0 0.00 0.00 0.00 74 1007.8
20260903083017 58 219 0.0 0.0 0.00 0.00 0.00 73 1007.8
20260903081523 59 226 0.0 0.0 0.00 0.00 0.00 73 1008.0
20260903080014 58 198 0.0 0.0 0.00 0.00 0.00 73 1008.0
20260903074514 58 206 0.0 0.0 0.00 0.00 0.00 71 1008.2
20260903073012 59 256 0.0 0.0 0.00 0.00 0.00 72 1008.1
20260903071509 57 219 0.0 0.0 0.00 0.00 0.00 73 1008.1
20260903070007 57 236 0.0 0.0 0.00 0.00 0.00 73 1008.2
20260903064504 56 227 0.0 0.0 0.00 0.00 0.00 74 1008.2
20260903063007 56 206 0.0 0.0 0.00 0.00 0.00 74 1008.2
20260903061506 56 208 0.0 0.0 0.00 0.00 0.00 73 1008.1
20260903060005 54 225 0.0 0.0 0.00 0.00 0.00 75 1008.3
20260903054510 53 245 0.0 0.0 0.00 0.00 0.00 75 1008.4
20260903053001 53 251 0.0 0.0 0.00 0.00 0.00 76 1008.6
20260903051602 52 216 0.0 0.0 0.00 0.00 0.00 76 1008.7
20260903051501 52 229 0.0 0.0 0.00 0.00 0.00 76 1008.7
20260903044606 52 257 0.0 0.0 0.00 0.00 0.00 75 1008.6